SPACEBEE-78 (47715 NORAD) Tracking and Keplerian Element Data
This shows tracking and keplerian element data for the satellite.
Feedback or suggestion? Click here.
Element | Value |
Catalog | 47715 |
Name | SPACEBEE-78 |
Epoch Orbit | 617 |
Epoch Day | 99.89681955 |
Epoch Year | 2021 |
RAAN | 174.8372 |
Inclination | 97.4562 |
Eccentricity | 0.0011832 |
Argument of Perigee | 147.5916 |
Mean Anonmoly | 212.6048 |
Mean Motion | 15.21477279 |
Decay Rate | 4.379E-05 |
L1 | 1 47715U 21015R 21099.89681955 .00004379 00000-0 19754-3 0 9997 |
L2 | 2 47715 97.4562 174.8372 0011832 147.5916 212.6048 15.21477279 6171 |
Live tracking and technical data element details for SPACEBEE-78 (NORAD 47715). SPACEBEE-78 can be tracked NOW for your location showing map with azimuth and elevation plus other details from your city location.
Track the satellite on the map from your city or location and see movement details for azimuth, elevation, latitude, longitude, range, height, and movement on the map or in text.
IsCatalogInMostPopularTable: catalog: 47715, numindb: 9
Update: records affected: 1
GetName: 47715 SPACEBEE-78
Hit Count: updated at: Sat, 10 Apr 2021 18:51:10 GMT